GW0876 Weather Reports


time (UTC)temp
C
wind
direction
speed
KPH
gust
KPH
rain 1hr
cm
rain 24hr
cm
rain mn
cm
humidity
%
barometer
mb
20260508034217 11 310 0.0 3.2 0.00 0.81 0.18 96 1015.2
20260508032733 11 135 0.0 3.2 0.00 0.81 0.18 96 1015.2
20260508032136 11 319 0.0 3.2 0.00 0.81 0.18 96 1015.0
20260508031915 11 113 0.0 3.2 0.00 0.81 0.18 96 1015.2
20260508025735 11 209 0.0 1.6 0.00 0.81 0.18 96 1014.9
20260508024734 11 303 0.0 3.2 0.00 0.81 0.18 96 1014.8
20260508023735 11 312 0.0 3.2 0.00 0.81 0.18 96 1014.7
20260508022734 11 37 0.0 3.2 0.03 0.81 0.18 96 1014.4
20260508021734 11 260 0.0 3.2 0.05 0.81 0.18 96 1014.6
20260508020735 11 269 1.6 3.2 0.05 0.81 0.18 96 1014.6
20260508015734 11 284 3.2 4.8 0.05 0.76 0.18 96 1014.8
20260508014734 11 235 0.0 1.6 0.05 0.76 0.18 96 1014.6
20260508013735 11 63 0.0 3.2 0.05 0.76 0.15 96 1014.8
20260508012734 11 249 0.0 4.8 0.05 0.76 0.15 96 1014.9
20260508011734 11 304 0.0 6.4 0.03 0.76 0.10 96 1014.9
20260508011141 11 294 1.6 3.2 0.08 0.69 0.10 95 1014.4
20260508010914 11 105 1.6 4.8 0.05 0.76 0.10 96 1014.7
20260508004734 11 336 0.0 1.6 0.08 0.69 0.10 95 1014.2
20260508003736 11 62 0.0 3.2 0.08 0.69 0.10 95 1014.1
20260508002735 11 263 3.2 4.8 0.08 0.69 0.10 95 1014.1
20260508001735 11 272 3.2 4.8 0.05 0.69 0.08 95 1014.4
20260508000739 11 319 0.0 4.8 0.03 0.69 0.05 95 1014.3
20260507235736 11 306 0.0 4.8 0.00 0.66 0.05 95 1014.4
20260507235215 11 93 0.0 3.2 0.03 0.66 0.05 95 1014.4
20260507233736 11 291 0.0 3.2 0.03 0.66 0.03 95 1014.6
20260507232735 11 44 0.0 3.2 0.03 0.66 0.03 95 1014.6
20260507231734 11 89 0.0 1.6 0.03 0.66 0.03 95 1014.7
20260507230735 11 283 1.6 3.2 0.03 0.66 0.03 95 1014.7
20260507230216 11 199 0.0 3.2 0.05 0.64 0.03 95 1014.9
20260507224734 11 66 0.0 3.2 0.05 0.64 0.03 95 1014.9
20260507224212 11 315 3.2 3.2 0.08 0.64 0.00 95 1014.9
20260507222733 11 37 0.0 1.6 0.08 0.64 0.00 94 1014.8
20260507221746 11 20 0.0 4.8 0.10 0.64 0.00 94 1014.9
20260507220734 11 291 4.8 4.8 0.13 0.64 0.00 94 1014.7
20260507215733 11 121 0.0 3.2 0.15 0.51 0.64 94 1014.9
20260507214733 11 256 0.0 3.2 0.13 0.51 0.61 94 1014.7
20260507214216 11 66 0.0 3.2 0.13 0.51 0.58 94 1014.8
20260507212733 11 281 0.0 3.2 0.15 0.51 0.56 94 1014.8
20260507211734 12 269 0.0 4.8 0.13 0.51 0.53 93 1015.0
20260507210735 12 134 0.0 4.8 0.13 0.51 0.51 93 1014.7
20260507210211 12 355 0.0 4.8 0.10 0.38 0.48 93 1014.6
20260507205207 12 230 0.0 3.2 0.10 0.38 0.48 93 1014.4
20260507204236 12 117 0.0 3.2 0.08 0.38 0.46 92 1014.6
20260507202733 12 112 1.6 4.8 0.05 0.38 0.43 91 1014.7
20260507201733 12 340 0.0 4.8 0.05 0.38 0.41 91 1014.6
20260507200735 12 69 3.2 4.8 0.03 0.38 0.41 90 1014.4
20260507195733 12 109 0.0 6.4 0.00 0.38 0.38 90 1014.2
20260507195207 12 102 1.6 4.8 0.00 0.38 0.38 89 1014.2
20260507193735 12 28 1.6 6.4 0.00 0.38 0.38 90 1013.8
20260507192733 12 263 0.0 6.4 0.03 0.38 0.38 90 1014.0
20260507191732 12 88 1.6 6.4 0.03 0.38 0.38 89 1013.9
20260507190735 12 59 1.6 8.0 0.03 0.38 0.38 88 1014.0
20260507185733 13 98 1.6 9.7 0.03 0.33 0.38 91 1013.8
20260507184733 14 285 3.2 8.0 0.03 0.33 0.36 92 1013.7
20260507183735 14 255 0.0 3.2 0.03 0.33 0.36 92 1013.2
20260507183214 14 310 0.0 1.6 0.03 0.33 0.36 93 1013.2
20260507182217 14 299 0.0 1.6 0.03 0.33 0.33 92 1012.9
20260507180747 14 315 0.0 3.2 0.03 0.33 0.33 92 1012.7
20260507175733 14 343 0.0 3.2 0.05 0.30 0.33 91 1012.5
20260507174734 14 115 3.2 6.4 0.05 0.30 0.33 92 1012.6
20260507173735 14 104 1.6 3.2 0.10 0.30 0.33 92 1012.5
20260507172733 15 147 0.0 3.2 0.13 0.30 0.33 92 1012.5
20260507171733 15 153 0.0 1.6 0.10 0.30 0.33 92 1012.4
20260507170734 14 117 0.0 4.8 0.13 0.30 0.30 90 1012.1
20260507170142 14 296 3.2 9.7 0.28 0.15 0.28 90 1012.1
20260507165915 14 77 0.0 4.8 0.23 0.15 0.30 89 1012.1
20260507163735 14 271 4.8 9.7 0.23 0.15 0.23 90 1012.1
20260507162733 14 319 0.0 3.2 0.20 0.18 0.20 89 1012.1
20260507161733 14 147 0.0 3.2 0.20 0.20 0.20 89 1012.1
20260507160734 14 297 0.0 4.8 0.18 0.20 0.18 87 1012.1
20260507155733 15 36 4.8 8.0 0.08 0.05 0.05 83 1012.4
20260507154733 16 234 3.2 9.7 0.00 0.05 0.00 74 1012.2
20260507153735 18 261 8.0 9.7 0.00 0.05 0.00 72 1012.2
20260507152733 18 291 1.6 8.0 0.00 0.05 0.00 73 1011.6
20260507151733 19 283 4.8 6.4 0.00 0.05 0.00 70 1011.6
20260507150734 20 308 1.6 6.4 0.00 0.05 0.00 64 1011.5
20260507150218 20 0 1.6 4.8 0.00 0.05 0.00 62 1011.4
20260507144733 20 21 0.0 6.4 0.00 0.05 0.00 61 1011.4
20260507143734 20 347 0.0 6.4 0.00 0.05 0.00 61 1011.1
20260507142733 20 46 3.2 8.0 0.00 0.05 0.00 60 1011.2
20260507141733 20 293 3.2 8.0 0.00 0.05 0.00 59 1011.2
20260507141606 21 287 4.8 9.7 0.00 0.05 0.00 58 1011.4
20260507140915 21 278 1.6 6.4 0.00 0.05 0.00 58 1011.1
20260507134733 21 308 4.8 6.4 0.00 0.05 0.00 57 1011.2
20260507133734 21 284 3.2 11.3 0.00 0.05 0.00 56 1011.2
20260507132732 21 289 4.8 8.0 0.00 0.05 0.00 57 1010.8
20260507131733 21 7 1.6 8.0 0.00 0.05 0.00 58 1011.0
20260507130735 21 67 1.6 6.4 0.00 0.05 0.00 59 1011.2
20260507125733 21 237 1.6 8.0 0.00 0.05 0.00 58 1011.1
20260507124733 21 23 3.2 6.4 0.00 0.05 0.00 57 1011.1
20260507124652 21 287 3.2 6.4 0.00 0.05 0.00 57 1011.0
20260507122746 21 206 3.2 6.4 0.00 0.05 0.00 56 1011.1
20260507121733 21 265 1.6 8.0 0.00 0.05 0.00 54 1011.0
20260507120735 21 291 1.6 8.0 0.00 0.05 0.00 54 1011.1
20260507115737 21 281 6.4 9.7 0.00 0.05 0.00 53 1011.2
20260507114733 21 302 3.2 8.0 0.00 0.05 0.00 53 1011.0
20260507113734 21 269 1.6 9.7 0.00 0.05 0.00 53 1011.2
20260507113701 21 287 4.8 11.3 0.00 0.05 0.00 53 1011.2
20260507111735 21 274 3.2 11.3 0.00 0.05 0.00 53 1011.1
20260507110734 22 89 0.0 6.4 0.00 0.05 0.00 51 1010.9
20260507110705 22 359 1.6 8.0 0.00 0.05 0.00 51 1010.8
20260507104733 22 317 4.8 11.3 0.00 0.05 0.00 52 1010.9
20260507104214 22 294 3.2 9.7 0.00 0.05 0.00 52 1010.9
20260507103701 22 265 1.6 11.3 0.00 0.05 0.00 52 1011.0
20260507101733 22 279 4.8 12.9 0.00 0.05 0.00 52 1010.6
20260507100734 22 64 3.2 14.5 0.00 0.05 0.00 51 1010.8
20260507095734 22 295 3.2 14.5 0.00 0.05 0.00 52 1010.6
20260507094733 21 275 4.8 14.5 0.00 0.05 0.00 51 1010.5
20260507093735 22 330 8.0 16.1 0.00 0.05 0.00 52 1010.4
20260507092733 22 282 8.0 16.1 0.00 0.05 0.00 52 1010.6
20260507091746 22 319 3.2 14.5 0.00 0.05 0.00 53 1010.3
20260507091212 21 294 6.4 14.5 0.00 0.05 0.00 53 1010.1
20260507085733 21 309 3.2 14.5 0.00 0.05 0.00 53 1010.3
20260507084734 21 291 11.3 14.5 0.00 0.05 0.00 53 1010.1
20260507083734 21 288 8.0 19.3 0.00 0.05 0.00 52 1010.2
20260507082733 21 277 16.1 20.9 0.00 0.05 0.00 51 1010.0
20260507082645 21 283 4.8 16.1 0.00 0.05 0.00 53 1009.8
20260507080734 21 282 9.7 14.5 0.00 0.05 0.00 54 1009.7
20260507080208 21 249 6.4 9.7 0.00 0.05 0.00 55 1009.7
20260507074733 21 303 4.8 12.9 0.00 0.05 0.00 54 1009.8
20260507073734 20 281 8.0 11.3 0.00 0.05 0.00 58 1009.7
20260507073705 20 265 3.2 9.7 0.00 0.05 0.00 57 1009.5
20260507071733 20 146 0.0 9.7 0.00 0.05 0.00 59 1009.4
20260507070735 19 55 3.2 8.0 0.00 0.05 0.00 60 1009.4
20260507065746 19 295 3.2 6.4 0.00 0.05 0.00 62 1009.5
20260507064734 18 22 3.2 4.8 0.00 0.05 0.00 62 1009.2
20260507064224 17 95 0.0 4.8 0.00 0.05 0.00 66 1009.4
20260507062733 17 191 1.6 3.2 0.00 0.05 0.00 65 1009.3
20260507062212 17 24 0.0 3.2 0.00 0.05 0.00 65 1009.2
20260507060734 16 180 0.0 6.4 0.00 0.05 0.00 66 1009.1
20260507055733 16 273 3.2 4.8 0.00 0.05 0.00 67 1008.9
20260507054734 16 346 3.2 6.4 0.00 0.05 0.00 68 1008.7
20260507054648 16 3 3.2 6.4 0.00 0.05 0.00 68 1008.6
20260507052733 16 330 3.2 4.8 0.00 0.05 0.00 67 1008.6
20260507051734 16 36 0.0 4.8 0.00 0.05 0.00 67 1008.6
20260507051221 16 77 1.6 4.8 0.00 0.05 0.00 68 1008.7
20260507050217 16 44 0.0 3.2 0.00 0.05 0.00 68 1008.6
20260507044733 16 287 1.6 4.8 0.00 0.05 0.00 67 1008.5
20260507043734 16 349 0.0 6.4 0.00 0.05 0.00 67 1008.3
20260507042732 15 327 3.2 6.4 0.00 0.05 0.00 68 1008.4
20260507041734 15 274 0.0 6.4 0.00 0.05 0.00 68 1008.4
20260507040735 15 309 3.2 6.4 0.00 0.05 0.00 68 1008.4
20260507035733 15 337 1.6 4.8 0.00 0.05 0.00 68 1008.2
20260507034733 15 308 0.0 3.2 0.00 0.05 0.00 67 1008.0